Date String (YYYY-MM-DD hh:mm:ss) UTC,Instrument flags,Ambient pressure (hPa),Sample flow (lpm),Bypass flow (lpm),Sample temperature (°C),Ambient temperature (°C),ASC tube jacket temperature (°C),LED temperature (°C),Box temperature (°C),Sample RH (%),Span deviation,Mass concentration (μg/m³),Mass concentration (μg/m³),Mass concentration (μg/m³)
DateTimeUTC,F1_M11,P_M11,Q1_M11,Q2_M11,T1_M11,T2_M11,T3_M11,T4_M11,T5_M11,U1_M11,ZSPAN_M11,X0_M11,X2_M11,X1_M11
2022-01-07 20:00:00,,0812.5,5.00,0.00,25.1,24.5,00.0,33.9,27.0,09.2,0000.0,0005.17,0003.45,0003.18
2022-01-07 20:01:00,,0812.5,4.98,0.00,25.1,24.5,00.0,33.9,27.1,09.1,0000.0,0006.16,0003.84,0003.55
2022-01-07 20:02:00,,0812.5,5.01,0.00,25.1,24.5,00.0,33.9,27.1,09.1,0000.0,0006.98,0004.18,0003.87
2022-01-07 20:03:00,,0812.5,5.00,0.00,25.2,24.5,00.0,33.9,27.1,09.2,0000.0,0007.63,0004.57,0004.25
2022-01-07 20:04:00,,0812.5,5.00,0.00,25.2,24.6,00.0,34.0,27.1,09.2,0000.0,0008.14,0004.97,0004.63
2022-01-07 20:05:00,,0812.6,5.00,0.00,25.2,24.6,00.0,34.0,27.1,08.8,0000.0,0008.32,0005.13,0004.80
2022-01-07 20:06:00,,0812.5,5.00,0.00,25.2,24.6,00.0,34.0,27.1,08.7,0000.0,0008.34,0005.17,0004.87
2022-01-07 20:07:00,,0812.5,4.99,0.00,25.3,24.6,00.0,34.0,27.1,08.9,0000.0,0008.23,0005.09,0004.81
2022-01-07 20:08:00,,0812.5,5.02,0.00,25.3,24.6,00.0,34.0,27.2,09.0,0000.0,0008.21,0005.09,0004.81
2022-01-07 20:09:00,,0812.5,4.99,0.00,25.3,24.6,00.0,34.1,27.2,08.9,0000.0,0008.05,0004.98,0004.73
2022-01-07 20:10:00,,0812.5,5.00,0.00,25.3,24.6,00.0,34.1,27.2,09.0,0000.0,0007.82,0004.83,0004.61
2022-01-07 20:11:00,,0812.4,5.00,0.00,25.3,24.7,00.0,34.1,27.2,08.6,0000.0,0007.54,0004.63,0004.42
2022-01-07 20:12:00,,0812.4,5.01,0.00,25.4,24.7,00.0,34.1,27.3,08.7,0000.0,0007.03,0004.38,0004.21
2022-01-07 20:13:00,,0812.5,4.99,0.00,25.4,24.7,00.0,34.2,27.3,08.9,0000.0,0006.70,0004.24,0004.07
2022-01-07 20:14:00,,0812.5,5.02,0.00,25.4,24.7,00.0,34.2,27.3,09.0,0000.0,0006.35,0004.05,0003.86
2022-01-07 20:15:00,,0812.5,4.99,0.00,25.4,24.7,00.0,34.2,27.3,08.9,0000.0,0005.64,0003.76,0003.58
2022-01-07 20:16:00,,0812.4,5.00,0.00,25.4,24.7,00.0,34.2,27.3,09.2,0000.0,0005.16,0003.54,0003.37
2022-01-07 20:17:00,,0812.4,5.01,0.00,25.4,24.7,00.0,34.2,27.3,09.3,0000.0,0004.59,0003.31,0003.15
2022-01-07 20:18:00,,0812.3,5.00,0.00,25.4,24.7,00.0,34.3,27.3,08.8,0000.0,0004.18,0003.12,0002.87
2022-01-07 20:19:00,,0812.3,5.00,0.00,25.5,24.7,00.0,34.3,27.3,09.0,0000.0,0003.79,0002.79,0002.54
2022-01-07 20:20:00,,0812.3,4.99,0.00,25.5,24.7,00.0,34.3,27.3,08.9,0000.0,0003.49,0002.54,0002.29
2022-01-07 20:21:00,,0812.3,5.00,0.00,25.5,24.7,00.0,34.3,27.4,08.9,0000.0,0003.06,0002.21,0001.99
2022-01-07 20:22:00,,0812.2,4.99,0.00,25.5,24.8,00.0,34.3,27.4,10.1,0000.0,0003.26,0002.23,0001.93
2022-01-07 20:23:00,,0812.1,5.01,0.00,25.5,24.8,00.0,34.3,27.4,10.3,0000.0,0004.78,0003.27,0003.01
2022-01-07 20:24:00,,0812.0,5.00,0.00,25.6,24.8,00.0,34.4,27.4,09.7,0000.0,0006.06,0003.51,0003.30
2022-01-07 20:25:00,,0812.0,5.00,0.00,25.6,24.9,00.0,34.4,27.5,10.0,0000.0,0006.79,0003.85,0003.62
2022-01-07 20:26:00,,0812.1,5.00,0.00,25.6,24.9,00.0,34.4,27.5,09.4,0000.0,0007.26,0004.05,0003.83
2022-01-07 20:27:00,,0812.1,4.99,0.00,25.6,24.9,00.0,34.4,27.5,09.1,0000.0,0007.46,0004.18,0003.95
2022-01-07 20:28:00,,0812.3,5.01,0.00,25.6,24.9,00.0,34.4,27.5,09.1,0000.0,0007.65,0004.32,0004.08
2022-01-07 20:29:00,,0812.4,4.99,0.00,25.7,24.9,00.0,34.5,27.5,09.5,0000.0,0008.11,0004.62,0004.34
2022-01-07 20:30:00,,0812.4,5.00,0.00,25.7,24.9,00.0,34.5,27.5,09.3,0000.0,0008.36,0004.81,0004.53
2022-01-07 20:31:00,,0812.4,4.99,0.00,25.7,24.9,00.0,34.5,27.6,08.9,0000.0,0008.60,0004.97,0004.66
2022-01-07 20:32:00,,0812.4,5.01,0.00,25.7,24.9,00.0,34.5,27.6,08.7,0000.0,0008.68,0005.03,0004.73
2022-01-07 20:33:00,,0812.4,5.00,0.00,25.7,24.9,00.0,34.5,27.6,09.0,0000.0,0008.52,0004.98,0004.72
2022-01-07 20:34:00,,0812.3,5.01,0.00,25.7,25.0,00.0,34.6,27.6,09.1,0000.0,0007.69,0004.34,0004.12
2022-01-07 20:35:00,,0812.3,5.01,0.00,25.8,25.0,00.0,34.6,27.6,09.0,0000.0,0006.63,0004.06,0003.85
2022-01-07 20:36:00,,0812.2,5.00,0.00,25.8,25.0,00.0,34.6,27.6,08.8,0000.0,0005.67,0003.68,0003.51
2022-01-07 20:37:00,,0812.1,5.01,0.00,25.8,25.1,00.0,34.6,27.7,08.2,0000.0,0004.91,0003.36,0003.21
2022-01-07 20:38:00,,0812.1,5.00,0.00,25.8,25.1,00.0,34.6,27.7,07.8,0000.0,0004.90,0003.21,0003.03
2022-01-07 20:39:00,,0812.0,5.00,0.00,25.8,25.1,00.0,34.6,27.7,07.9,0000.0,0005.90,0003.10,0002.87
2022-01-07 20:40:00,,0812.0,5.00,0.00,25.8,25.2,00.0,34.6,27.7,08.3,0000.0,0005.38,0002.80,0002.60
2022-01-07 20:41:00,,0812.0,5.01,0.00,25.9,25.2,00.0,34.7,27.8,09.6,0000.0,0005.32,0002.85,0002.66
2022-01-07 20:42:00,,0812.1,4.99,0.00,25.9,25.2,00.0,34.7,27.8,10.1,0000.0,0006.09,0003.35,0003.23
2022-01-07 20:43:00,,0812.1,5.01,0.00,25.9,25.3,00.0,34.7,27.8,09.4,0000.0,0007.31,0003.87,0003.73
2022-01-07 20:44:00,,0812.1,5.00,0.00,25.9,25.3,00.0,34.7,27.8,09.8,0000.0,0008.17,0004.52,0004.33
2022-01-07 20:45:00,,0812.1,4.99,0.00,26.0,25.3,00.0,34.8,27.9,09.9,0000.0,0009.01,0005.20,0004.98
2022-01-07 20:46:00,,0812.1,5.01,0.00,26.0,25.3,00.0,34.8,27.9,10.5,0000.4,0010.16,0006.12,0005.87
2022-01-07 20:47:00,,0812.1,5.00,0.00,26.0,25.3,00.0,34.8,27.9,10.0,0000.6,0011.44,0006.99,0006.68
2022-01-07 20:48:00,,0812.1,5.01,0.00,26.0,25.4,00.0,34.8,27.9,10.1,0000.4,0012.80,0007.88,0007.54
2022-01-07 20:49:00,,0812.2,4.98,0.00,26.1,25.4,00.0,34.8,27.9,09.3,0000.6,0013.60,0008.53,0008.14
2022-01-07 20:50:00,,0812.1,5.02,0.00,26.1,25.4,00.0,34.9,28.0,09.6,0000.7,0013.92,0008.93,0008.50
2022-01-07 20:51:00,,0812.1,4.99,0.00,26.1,25.4,00.0,34.9,28.0,09.3,0001.1,0014.70,0009.21,0008.77
2022-01-07 20:52:00,,0812.0,5.00,0.00,26.1,25.5,00.0,34.9,28.0,08.6,0001.0,0015.30,0009.23,0008.78
2022-01-07 20:53:00,,0812.0,5.01,0.00,26.2,25.5,00.0,34.9,28.1,08.5,0000.8,0014.96,0008.94,0008.50
2022-01-07 20:54:00,,0812.1,4.98,0.00,26.2,25.5,00.0,34.9,28.1,08.3,0000.6,0014.41,0008.55,0008.13
2022-01-07 20:55:00,,0812.1,5.00,0.00,26.2,25.5,00.0,35.0,28.1,08.0,0000.6,0013.80,0008.03,0007.61
2022-01-07 20:56:00,,0812.2,5.01,0.00,26.3,25.6,00.0,35.0,28.1,07.6,0000.5,0012.98,0007.35,0006.95
2022-01-07 20:57:00,,0812.2,5.01,0.00,26.3,25.6,00.0,35.0,28.2,07.7,-000.0,0011.94,0006.48,0006.11
2022-01-07 20:58:00,,0812.2,5.01,0.00,26.3,25.6,00.0,35.0,28.2,07.9,0000.0,0010.75,0005.62,0005.29
2022-01-07 20:59:00,,0812.2,4.99,0.00,26.3,25.6,00.0,35.1,28.2,07.8,0000.0,0009.80,0004.90,0004.56
